www.pogodaiklimat.ru

Погода и климат >> Архив погоды >> Филиппины >> Масбате


ПОГОДА в Масбате

  • Прогноз погоды в Масбате
  • Монитор погоды в Масбате

АРХИВ ПОГОДЫ в Масбате

Время (UTC), дата Ветер
(напр.,м/с)
 
Видим.   Явления Облачность Т
(С)
Тd
(С)
f
(%)
Тe
(С)
Тes
(С)
Комфортность P
(гПа)
Po
(гПа)
Тmin
(С)
Tmax
(С)
R
(мм)
R24
(мм)
S
(см)
03 12.09 З 1 15 км слаб. дождь 10/4 540 м
[Cu Sc Cs]
+28.4 +24.4 79 +40 +52 опасность
солнечного
удара
1006.3 1005.2 0.2
06 12.09 З 2 15 км слаб. ливневой дождь 10/4 500 м
[Cb calv Ac As Cs]
+28.6 +24.6 79 +41 +45 опасность
перегрева
1004.2 1003.1 0.2
09 12.09 З 1 15 км {ливн. осадки} 10/4 500 м
[Cb calv Cs]
+28.0 +23.2 75 +38 +38 очень
душно
1004.9 1003.8 0.0
12 12.09 З 1 15 км {ливн. осадки} 10/5 540 м
[Cu med, cong Cs]
+27.0 +23.2 80 +36 +36 очень
душно
1005.9 1004.8 +28.6 0.0
15 12.09 З 1 15 км 10/5 540 м
[Cu med, cong Cs]
+27.0 +24.1 84 +37 +37 очень
душно
1006.4 1005.3
18 12.09 З 1 15 км 9/4 540 м
[Cu med, cong Ac trans Cs]
+26.6 +23.9 85 +37 +37 очень
душно
1004.7 1003.6
21 12.09 ЮЗ 1 15 км 10/4 540 м
[Cu med, cong Ac As Cs]
+26.6 +24.2 87 +37 +37 очень
душно
1004.9 1003.8
00 13.09 Ю 1 20 км 9/3 540 м
[Cu med, cong Ac As Cs]
+28.0 +23.7 77 +38 +41 очень
душно
1006.3 1005.2 +25.5 0.2
03 13.09 Ю 3 20 км в посл. час ливневой дождь 9/4 540 м
[Cu med, cong Ac As Cs]
+28.2 +24.8 82 +40 +46 очень
душно
1006.6 1005.5 0.0
06 13.09 Ю 2 20 км {ливн. осадки} 9/4 500 м
[Cb calv Ac trans Cs]
+30.2 +24.4 71 +42 +48 опасность
перегрева
1004.8 1003.7 0.0
09 13.09 ЮЗ 2 20 км 10/4 500 м
[Cb calv Cs]
+28.8 +24.8 79 +41 +42 опасность
перегрева
1006.0 1004.9
12 13.09 Ю 1 15 км {ливн. осадки} 10/4 540 м
[Cu med, cong Ac As Cs]
+26.8 +24.4 87 +38 +38 очень
душно
1008.4 1007.3 +30.5 0.4
15 13.09 З 1 15 км 10/4 540 м
[Cu med, cong Ac As Cs]
+26.8 +24.7 88 +38 +38 очень
душно
1008.7 1007.6
18 13.09 штиль 0 15 км 10/4 540 м
[Cu med, cong Ac trans Cs]
+26.6 +24.5 88 +37 +37 очень
душно
1007.1 1006.0
21 13.09 Ю 1 15 км 10/4 540 м
[Cu med, cong Ac As Cs]
+26.6 +24.5 88 +37 +37 очень
душно
1007.5 1006.4
00 14.09 ЮЗ 2 15 км в посл. час ливневой дождь 10/4 500 м
[Cb calv Cs]
+27.8 +25.2 86 +40 +44 очень
душно
1008.8 1007.7 +25.5 0.4
03 14.09 Ю 4
{10}
20 км {ливн. осадки} 8/4 540 м
[Cu med, cong Cs]
+30.8 +24.5 69 +43 +50 опасность
перегрева
1008.3 1007.2 1
06 14.09 Ю 2
{9}
15 км слаб. ливневой дождь 9/4 500 м
[Cb calv Ac As Cs]
+30.2 +25.0 74 +44 +49 опасность
перегрева
1007.0 1005.9 1
09 14.09 Ю 1 15 км {ливн. осадки} 9/4 540 м
[Cu med, cong Ac As Cs]
+28.4 +24.7 80 +40 +41 очень
душно
1007.9 1006.8 0.2
12 14.09 З 1 15 км {ливн. осадки} 9/4 540 м
[Cu med, cong Ac As Cs]
+27.2 +24.0 83 +38 +38 очень
душно
1009.9 1008.8 +30.8 0.2
15 14.09 ЮЗ 1 15 км 10/5 540 м
[Cu med, cong Cs]
+27.0 +24.3 85 +38 +38 очень
душно
1010.0 1008.9
18 14.09 штиль 0 15 км 9/4 540 м
[Cu med, cong Cs]
+26.8 +23.8 84 +37 +37 очень
душно
1009.4 1008.3
21 14.09 З 1 10 км слаб. ливневой дождь 10/4 500 м
[Cb calv Ac As Cs]
+26.4 +24.8 91 +38 +38 очень
душно
1009.2 1008.1 0.4
00 15.09 З 2 15 км в посл. час дождь {ливн. осадки} 9/4 500 м
[Cb calv Cs]
+26.8 +24.1 85 +37 +40 очень
душно
1010.9 1009.8 +24.5 10
03 15.09 З 3
{9}
20 км {ливн. осадки} 9/3 540 м
[Cu med, cong Cs]
+30.6 +23.5 66 +41 +51 опасность
перегрева
1009.2 1008.1 0.2
06 15.09 ЮЗ 2
{9}
20 км {ливн. осадки} 9/3 540 м
[Cu med, cong Cs]
+31.2 +23.7 64 +42 +51 опасность
перегрева
1007.8 1006.7 0.2
09 15.09 З 2 20 км 9/4 540 м
[Cu med, cong Ac As Cs]
+29.2 +23.3 71 +40 +40 очень
душно
1007.5 1006.4
12 15.09 ЮЗ 2 15 км 10/4 540 м
[Cu med, cong Cs]
+28.0 +24.0 79 +39 +39 очень
душно
1009.3 1008.2 +31.2
15 15.09 Ю 1 15 км {ливн. осадки} 10/5 540 м
[Cu med, cong Cs]
+27.2 +24.8 87 +39 +39 очень
душно
1009.5 1008.4 0.2
18 15.09 З 2 10 км гроза, ливневой дождь 10/5 450 м
[Cb cap As op]
+25.4 +23.8 91 +35 +35 очень
душно
1008.4 1007.3 9
21 15.09 ЮЗ 2 15 км {гроза, дождь} 9/3 540 м
[Cu med, cong Ac As Cs]
+26.4 +23.7 85 +36 +36 очень
душно
1008.1 1007.0 0.2
00 16.09 ЮЗ 1 20 км {ливн. осадки} 9/3 540 м
[Cu med, cong Ac As Cs]
+27.4 +24.8 86 +39 +42 очень
душно
1009.8 1008.7 +24.5 10
03 16.09 ЮЗ 3 20 км 9/3 540 м
[Cu med, cong Ac trans Cs]
+30.8 +22.4 61 +40 +47 очень
душно
1008.3 1007.2
06 16.09 Ю 3
{9}
20 км 8/3 540 м
[Cu med, cong Ac trans Cs]
+31.4 +24.8 68 +45 +50 опасность
перегрева
1005.6 1004.5
09 16.09 ЮЗ 2 20 км 9/3 540 м
[Cu med, cong Ac As Cs]
+30.6 +24.2 69 +43 +43 опасность
перегрева
1005.9 1004.8
12 16.09 штиль 0 15 км 10/4 540 м
[Cu med, cong Cs]
+28.4 +24.4 79 +40 +40 очень
душно
1007.2 1006.1 +31.4
15 16.09 З 1 15 км 10/4 540 м
[Cu med, cong Cs]
+27.4 +25.0 87 +39 +39 очень
душно
1008.0 1006.9
18 16.09 Ю 2 15 км 10/4 540 м
[Cu med, cong Ac As Cs]
+27.6 +24.4 83 +39 +39 очень
душно
1006.3 1005.2
21 16.09 З 1 15 км 10/4 540 м
[Cu med, cong Ac As Cs]
+27.4 +24.8 86 +39 +39 очень
душно
1007.0 1005.9
00 17.09 Ю 1 20 км 6/3 540 м
[Cu med, cong Ac trans Ci sp]
+29.4 +25.2 78 +43 +47 опасность
перегрева
1008.4 1007.3 +26.5
03 17.09 Ю 4
{10}
20 км 8/4 540 м
[Cu med, cong Cs]
+32.0 +24.9 66 +45 +53 опасность
перегрева
1008.3 1007.2
06 17.09 Ю 2
{9}
20 км 9/4 540 м
[Cu med, cong Ac As Cs]
+32.0 +24.9 66 +45 +51 опасность
перегрева
1005.9 1004.8
09 17.09 ЮЗ 1 20 км 9/4 540 м
[Cu med, cong Ac As Cs]
+30.0 +24.5 72 +42 +42 опасность
перегрева
1006.8 1005.7
12 17.09 Ю 4
{10}
5000 м сильн. гроза, ливневой дождь 10/5 450 м
[Cb cap As op]
+25.2 +23.3 89 +34 +34 очень
душно
1009.8 1008.7 +32.4 30
15 17.09 Ю 1 15 км в посл. час дождь {гроза} 10/5 540 м
[Cu Sc Cs]
+25.4 +24.1 93 +35 +35 очень
душно
1010.0 1008.9 5
18 17.09 ЮЗ 1 15 км {гроза, дождь} 10/5 540 м
[Cu med, cong Cs]
+26.2 +24.6 91 +37 +37 очень
душно
1008.4 1007.3 5
21 17.09 Ю 1 15 км 8/3 540 м
[Cu med, cong Cs]
+26.0 +24.1 89 +36 +36 очень
душно
1008.5 1007.4
00 18.09 Ю 3
{8}
20 км 9/4 540 м
[Cu med, cong Ac As Cs]
+28.0 +24.6 82 +40 +42 очень
душно
1010.7 1009.6 +24.0 35
03 18.09 Ю 4
{10}
20 км 9/4 540 м
[Cu med, cong Ac As Cs]
+30.6 +24.2 69 +43 +47 опасность
перегрева
1010.4 1009.3
06 18.09 ЮЗ 2
{10}
20 км 9/4 540 м
[Cu med, cong Cs]
+29.6 +24.6 75 +42 +50 опасность
перегрева
1008.0 1006.9
09 18.09 ЮЗ 1 20 км {дождь} 9/4 540 м
[Cu med, cong Ac As Cs]
+29.0 +25.6 82 +43 +43 опасность
перегрева
1008.9 1007.8 0.4
12 18.09 ЮЗ 1 15 км {дождь} 9/4 540 м
[Cu med, cong Cs]
+27.6 +23.3 77 +37 +37 очень
душно
1010.3 1009.2 +30.6 0.4
15 18.09 ЮЗ 1 15 км 9/3 540 м
[Cu med, cong Ac As Cs]
+27.4 +24.5 84 +39 +39 очень
душно
1011.0 1009.9
18 18.09 З 1 15 км 10/4 540 м
[Cu med, cong Ac As Cs]
+27.0 +24.3 85 +38 +38 очень
душно
1009.4 1008.3
21 18.09 Ю 2 15 км 9/3 540 м
[Cu med, cong Ac As Cs]
+27.0 +23.5 81 +37 +37 очень
душно
1009.5 1008.4

 

Местоположение метеостанции Масбате (Филиппины): широта 12.37 долгота 123.61 высота над уровнем моря 6 м.

В архиве по умолчанию представлена погода в Масбате за последнюю неделю. Архивные данные за месяц целиком и за предыдущие месяцы, начиная с января 2011 года, Вы можете получить, выбрав интересующий диапазон дат из раскрывающегося списка и нажав кнопку "Ввод!".


*Определитесь, кто Вы:
робот инопланетянин человек

Внимание! Время в таблицах - всемирное. Для получения местного времени необходимо прибавить поправку, которая равна 8 ч.

Смотрите также архив погоды в соседних городах и на ближайших метеорологических станциях:

Погода в Легаспи (Филиппины) (86 км)
Погода в Катармане (Филиппины) (112 км)
Погода в Рохасе (Филиппины) (128 км)
Погода в Ромблоне (Филиппины) (148 км)
Погода в Вираке (Филиппины) (150 км)
Погода в Катбалогане (Филиппины) (153 км)
Погода в Таклобане (Филиппины) (196 км)
Погода в Даете (Филиппины) (207 км)
Погода в Боронган Сити (Филиппины) (214 км)
Погода в Мактане (Филиппины) (233 км)

Пояснения к столбцам:

Ветер - указаны скорость ветра в м/с - средняя за 10 мин, порывы в срок и между сроками (в фигурных скобках) и направление, откуда дует ветер: С - северный, СВ - северо-восточный, В - восточный, ЮВ - юго-восточный, Ю - южный, ЮЗ - юго-западный, З - западный, СЗ - северо-западный.
Видимость - горизонтальная дальность видимости в метрах или километрах. При видимости от 1 до 10 км при отсутствии осадков обычно наблюдается дымка, при ухудшении видимости до 1 км и менее - туман. В сухую погоду видимость может ухудшаться дымом, пылью или мглою.
Явления - указаны атмосферные явления, наблюдавшиеся в срок или в последний час перед сроком; фигурными скобками обозначены явления, наблюдавшиеся между сроками (за 1-3 часа до срока); квадратными скобками обозначены град или гололедные отложения с указанием их диаметра в мм.
Облачность - указаны через наклонную черту общая и нижняя облачность в баллах и высота нижней границы облаков в метрах; квадратными скобками обозначены формы облаков: Ci - перистые, Cs - перисто-слоистые, Cc - перисто-кучевые, Ac - высококучевые, As - высокослоистые, Sc - слоисто-кучевые, Ns - слоисто-дождевые, Cu - кучевые, Cb - кучево-дождевые. Подробнее классификацию облаков см. в Атласе облаков (PDF).
T - Температура воздуха - температура, измеренная на высоте 2 м над землей.
Td - Температура точки росы - температура, при понижении до которой содержащийся в воздухе водяной пар достигнет насыщения.
f - Относительная влажность воздуха - влажноcть воздуха, измеренная на высоте 2 м над землей.
Te - Эффективная температура - температура, которую ощущает одетый по сезону человек в тени. Характеристика душности погоды. При расчете учитывается влияние влажности воздуха и скорости ветра на теплоощущения человека.
Tes - Эффективная температура на солнце - температура, которую ощущает человек, с поправкой на солнечный нагрев. Характеристика знойности погоды. Зависит от высоты солнца над горизонтом, облачности и скорости ветра. Ночью, в пасмурную погоду, а также при ветре 12 м/с и более поправка равна нулю.
P - Атмосферное давление - приведенное к уровню моря атмосферное давление.
Po - Атмосферное давление - измеренное на уровне метеостанции атмосферное давление.
Tmin - Минимальная температура - минимум температуры воздуха на высоте 2 м над землей.
Tmax - Максимальная температура - максимум температуры воздуха на высоте 2 м над землей.
R - Количество осадков - Количество выпавших осадков за период времени, мм. При наведении курсора мыши на число - период времени, за который выпало указанное количество осадков.
R24 - Количество осадков - Количество выпавших осадков за 24 часа, мм.
S - Снежный покров - Высота снежного покрова, см. При наведении курсора мыши на число - состояние снежного покрова и степень покрытия местности в баллах.